Regional Weather Roundup
Issued by NWS

Home | Current Version | Previous Version | Graphics & Text | Print | Product List | Glossary On
Versions: 1 2 3 4 5 6 7 8 9 10 11 12 13 14 15 16 17 18 19 20 21 22 23 24 25 26 27 28 29 30 31 32 33 34 35 36 37 38 39 40 41 42 43 44 45 46 47 48 49 50
000
ASUS45 KBOU 201510
RWRCO

WEATHER ROUNDUP FOR COLORADO
NATIONAL WEATHER SERVICE DENVER/BOULDER CO
800 AM MST TUE FEB 20 2018

NOTE: "FAIR" INDICATES FEW OR NO CLOUDS BELOW 12000 FEET WITH NO
SIGNIFICANT WEATHER AND/OR OBSTRUCTIONS TO VISIBILITY.

COZ001>005-013-030-031-201600-
...NORTHWEST COLORADO...

CITY           SKY/WX    TMP DP  RH WIND       PRES   REMARKS
CRAIG          CLOUDY    -6 -10  83 CALM      29.91R FOG
HAYDEN         LGT SNOW   1  -2  85 E8        29.90R WCI -12
MEEKER         LGT SNOW   3  -1  83 CALM      29.88R FOG
RANGELY        PTSUNNY    2  -4  75 SE6       29.96R WCI  -9
RABBIT EARS PA LGT SNOW  -6  -9  84 W10G17    29.60R VSB 1   WCI -23
STEAMBOAT SPGS CLOUDY     0  -4  84 CALM      29.86R
WALDEN         FAIR     -11 -17  77 SE7       29.75R WCI -26
$$

COZ006>008-011-201600-
...WEST CENTRAL VALLEYS...

CITY           SKY/WX    TMP DP  RH WIND       PRES   REMARKS
GRAND JUNCTION CLOUDY    18  16  92 CALM      29.93R
MONTROSE       LGT SNOW  17  16  95 CALM      29.92R FOG
EAGLE          LGT SNOW  13   8  81 E6        29.86R WCI   4
RIFLE          FOG       14  11  87 CALM      29.91R VSB 1
DELTA          PTSUNNY   22  16  78 CALM      29.92R
NUCLA          FAIR      21  14  73 SW7       29.92R WCI  13
$$

COZ017>023-064>068-201600-
...SOUTHWEST COLORADO...

CITY           SKY/WX    TMP DP  RH WIND       PRES   REMARKS
DURANGO        FAIR      11   8  88 N6        29.90R WCI   1
CORTEZ         FAIR      10   6  84 E6        29.93R WCI   0
PAGOSA SPRINGS LGT SNOW  14  11  90 SW5       29.86R WCI   6
TELLURIDE      FAIR       9  -2  61 CALM      29.78R
WOLF CREEK PAS CLOUDY    -4  -6  92 SW24G36   29.66R WCI -29
$$

COZ009-010-012-014-032>034-037-058>063-201600-
...CENTRAL COLORADO...

CITY           SKY/WX    TMP DP  RH WIND       PRES   REMARKS
ASPEN          LGT SNOW  11   7  84 CALM      29.76R VSB 1
BUENA VISTA    FAIR      17 -10  30 W6        29.72R WCI   9
COPPER MTN     LGT SNOW   1  -6  71 W12G25    29.54R WCI -15
BERTHOUD PASS  LGT SNOW  -9 -18  64 MISG      29.49R
COTTONWOOD PAS FAIR      14  -6  41 W16G26    29.64R WCI  -2
GUNNISON       FAIR       5  -1  76 E5        29.81R WCI  -4
GRANBY         CLOUDY     7  -2  66 S6        29.74R WCI  -3
KREMMLING      CLOUDY    14   3  62 CALM      29.80R
LEADVILLE      LGT SNOW   4  -3  73 N7        29.63R WCI  -8
MONARCH PASS   FAIR      -2  -8  78 W39G47    29.64R WCI -32
SALIDA         FAIR      19   2  47 S8        29.84R WCI   9
SUNLIGHT       LGT SNOW  -2  -8  78 SW6       29.69R WCI -14
WILKERSON PASS FAIR       0  -6  78 SW12G25   29.58R WCI -18
$$

COZ069>075-201600-
...SAN LUIS VALLEY/SANGRE DE CRISTO MOUNTAINS...

CITY           SKY/WX    TMP DP  RH WIND       PRES   REMARKS
ALAMOSA        FAIR      17   7  64 S13       29.81R WCI   4
DEL NORTE      FAIR      17   2  52 W16       29.77S WCI   1
LA VETA PASS   FAIR       9   0  66 S33G63    29.72R WCI -15
SAGUACHE       FAIR      10   3  72 NW5       29.79R WCI   2
$$

COZ035-036-038>040-201600-
...NORTHERN COLORADO FRONT RANGE...

CITY           SKY/WX    TMP DP  RH WIND       PRES   REMARKS
DENVER INTL AP PTSUNNY   -1  -6  79 SE7       29.90R WCI -14
AURORA         PTSUNNY   -2  -6  83 SE6       29.89R WCI -14
FRONT RANGE AP MOSUNNY   -2  -6  84 CALM      29.91R
ERIE MUNI ARPT FAIR      -7 -11  81 CALM      29.98R
BOULDER MUN AP FAIR       0  -4  85 CALM      29.90S
CENTENNIAL     PTSUNNY   -1  -5  82 E5        29.86R WCI -11
BROOMFIELD     PTSUNNY    1  -2  85 CALM      29.88R
FORT COLLINS   LGT SNOW  -4  -8  84 S5        29.95R FOG     WCI -15
LONGMONT       FAIR      -4  -9  80 W3        29.96R
$$

COZ041-046-047-076>085-087-088-201600-
...PIKES PEAK/PALMER DIVIDE AND SOUTHERN FOOTHILLS...

CITY           SKY/WX    TMP DP  RH WIND       PRES   REMARKS
COLO. SPRINGS  FAIR       4   1  88 SE8       29.85R FOG     WCI  -9
A. F. ACADEMY  CLOUDY    -2  -7  78 N3        29.80R
SCHRIEVER AFB  NOT AVBL
CHEYENNE MTN   FLURRIES   5   3  91 CALM      29.71S
ELLICOTT       LGT SNOW N/A N/A N/A W8          N/A
FALCON         LGT SNOW   7   3  85 MISG      29.81R
FORT CARSON    MOSUNNY    7   3  85 S9        29.85R FOG     WCI  -7
LIMON          FAIR      -2  -6  83 NW10      29.93R WCI -19
MONUMENT HILL  CLOUDY    -8 -11  84 CALM      29.79R
CANON CITY     LGT SNOW  12   9  85 E5        29.89R WCI   4
WALSENBURG     NOT AVBL
TRINIDAD       LGT SNOW  10   8  92 NE9       29.86R FOG     WCI  -3
$$

COZ042>045-048>051-090-091-201600-
...NORTHEAST COLORADO...

CITY           SKY/WX    TMP DP  RH WIND       PRES   REMARKS
GREELEY ARPT   FAIR     -15 -19  82 N6        29.99R WCI -29
AKRON          FAIR      -5  -8  87 W8        29.96R WCI -20
BURLINGTON     FAIR       0  -6  76 NW13      30.01R WCI -18
WRAY           FAIR       5  -2  72 NW10      30.05R WCI -10
YUMA           NOT AVBL
STERLING       FAIR       1  -8  66 N12       30.02R WCI -15
HOLYOKE        FAIR       5  -4  66 NW9       30.04R WCI  -9
FORT MORGAN    FAIR       0  -8  69 W3        30.00R
$$

COZ086-089-092>099-201600-
...SOUTHEAST COLORADO...

CITY           SKY/WX    TMP DP  RH WIND       PRES   REMARKS
PUEBLO         CLOUDY     8   2  76 SE7       29.95R WCI  -3
LA JUNTA       FAIR       9   0  67 NE10      30.01R WCI  -5
LAMAR          FAIR      10  -1  61 NE7       30.05R WCI  -1
SPRINGFIELD      N/A     12   7  80 N12       29.97R WCI  -2
$$



USA.gov is the U.S. government's official web portal to all federal, state and local government web resources and services.